Location: Newark
(40.9833°N, 0.0333°W)
Time: 07:56:26
(UTC+00:00)

Transit 4A - Pass Details

Date: 05 November 2020
Orbit: 862 x 982 km, 66.8° (Epoch: 28 November)

Event Time Altitude Azimuth Distance (km) Brightness Sun altitude
Rises 20:12:08 0° 338° (NNW) 3,694 11.4 -38.2°
Enters shadow 20:15:33 - 356° (N) 2,789 10.5 -38.8°
Reaches altitude 10° 20:15:46 10° 358° (N) 2,740 - -38.9°
Maximum altitude 20:19:51 17° 38° (NE) 2,242 - -39.6°
Drops below altitude 10° 20:23:53 10° 78° (ENE) 2,706 - -40.4°
Sets 20:27:25 0° 97° (E) 3,630 - -41.0°
